| time (UTC) | temp C | wind direction | speed KPH | gust KPH | rain 1hr cm | rain 24hr cm | rain mn cm | humidity % | barometer mb |
| 20260505053504 | 29 | 190 | 1.6 | 6.4 | 0.00 | 0.00 | 0.00 | 40 | 1010.6 |
| 20260505053101 | 29 | 190 | 0.0 | 0.0 | 0.00 | 0.00 | 0.00 | 40 | 1010.3 |
| 20260505053002 | 28 | 190 | 0.0 | 0.0 | 0.00 | 0.00 | 0.00 | 40 | 1010.6 |
| 20260505052502 | 28 | 190 | 0.0 | 3.2 | 0.00 | 0.00 | 0.00 | 41 | 1010.6 |
| 20260505052002 | 28 | 190 | 0.0 | 3.2 | 0.00 | 0.00 | 0.00 | 42 | 1010.5 |
| 20260505051600 | 28 | 0 | 0.0 | 0.0 | 0.00 | 0.00 | 0.00 | 41 | 1010.2 |
| 20260505051503 | 28 | 190 | 0.0 | 0.0 | 0.00 | 0.00 | 0.00 | 41 | 1010.6 |
| 20260505051004 | 28 | 190 | 0.0 | 0.0 | 0.00 | 0.00 | 0.00 | 41 | 1010.5 |
| 20260505050501 | 28 | 190 | 0.0 | 0.0 | 0.00 | 0.00 | 0.00 | 41 | 1010.6 |
| 20260505041602 | 30 | 190 | 1.6 | 4.8 | 0.00 | 0.00 | 0.00 | 38 | 1009.8 |
| 20260505041600 | 30 | 190 | 1.6 | 4.8 | 0.00 | 0.00 | 0.00 | 38 | 1009.6 |
| 20260505041059 | 30 | 190 | 0.0 | 1.6 | 0.00 | 0.00 | 0.00 | 38 | 1009.8 |
| 20260505040559 | 30 | 190 | 0.0 | 0.0 | 0.00 | 0.00 | 0.00 | 37 | 1009.6 |
| 20260505040106 | 30 | 0 | 0.0 | 0.0 | 0.00 | 0.00 | 0.00 | 37 | 1009.3 |
| 20260505040059 | 30 | 190 | 0.0 | 0.0 | 0.00 | 0.00 | 0.00 | 37 | 1009.6 |
| 20260505035558 | 30 | 190 | 0.0 | 0.0 | 0.00 | 0.00 | 0.00 | 37 | 1009.6 |
| 20260505035058 | 31 | 190 | 0.0 | 0.0 | 0.00 | 0.00 | 0.00 | 37 | 1009.5 |
| 20260505034559 | 31 | 190 | 0.0 | 0.0 | 0.00 | 0.00 | 0.00 | 36 | 1009.3 |
| 20260505034557 | 31 | 0 | 0.0 | 0.0 | 0.00 | 0.00 | 0.00 | 36 | 1009.2 |
| 20260505034058 | 31 | 190 | 0.0 | 0.0 | 0.00 | 0.00 | 0.00 | 36 | 1009.2 |
| 20260505033558 | 31 | 190 | 0.0 | 0.0 | 0.00 | 0.00 | 0.00 | 36 | 1009.2 |
| 20260505033058 | 31 | 0 | 0.0 | 0.0 | 0.00 | 0.00 | 0.00 | 36 | 1009.0 |
| 20260505032556 | 31 | 190 | 0.0 | 3.2 | 0.00 | 0.00 | 0.00 | 36 | 1009.2 |
| 20260505032057 | 31 | 190 | 0.0 | 4.8 | 0.00 | 0.00 | 0.00 | 35 | 1009.2 |
| 20260505031610 | 31 | 190 | 0.0 | 0.0 | 0.00 | 0.00 | 0.00 | 35 | 1009.1 |
| 20260505031601 | 31 | 0 | 0.0 | 0.0 | 0.00 | 0.00 | 0.00 | 35 | 1009.0 |
| 20260505031057 | 31 | 190 | 0.0 | 3.2 | 0.00 | 0.00 | 0.00 | 35 | 1009.0 |
| 20260505030556 | 31 | 190 | 0.0 | 4.8 | 0.00 | 0.00 | 0.00 | 35 | 1008.9 |
| 20260505030056 | 31 | 190 | 0.0 | 6.4 | 0.00 | 0.00 | 0.00 | 34 | 1008.8 |
| 20260505025557 | 32 | 190 | 1.6 | 11.3 | 0.00 | 0.00 | 0.00 | 34 | 1008.7 |
| 20260505025056 | 32 | 190 | 0.0 | 11.3 | 0.00 | 0.00 | 0.00 | 34 | 1008.5 |
| 20260505024600 | 32 | 190 | 1.6 | 8.0 | 0.00 | 0.00 | 0.00 | 34 | 1008.3 |
| 20260505024557 | 32 | 190 | 1.6 | 8.0 | 0.00 | 0.00 | 0.00 | 33 | 1008.2 |
| 20260505024059 | 32 | 190 | 0.0 | 8.0 | 0.00 | 0.00 | 0.00 | 33 | 1008.2 |
| 20260505023557 | 32 | 190 | 1.6 | 16.1 | 0.00 | 0.00 | 0.00 | 33 | 1008.1 |
| 20260505023116 | 32 | 190 | 3.2 | 16.1 | 0.00 | 0.00 | 0.00 | 32 | 1008.0 |
| 20260505023059 | 32 | 0 | 6.4 | 16.1 | 0.00 | 0.00 | 0.00 | 32 | 1007.8 |
| 20260505022555 | 32 | 190 | 0.0 | 9.7 | 0.00 | 0.00 | 0.00 | 32 | 1008.0 |
| 20260505022055 | 32 | 190 | 4.8 | 9.7 | 0.00 | 0.00 | 0.00 | 32 | 1007.9 |
| 20260505021600 | 33 | 0 | 0.0 | 14.5 | 0.00 | 0.00 | 0.00 | 31 | 1007.6 |
| 20260505021555 | 33 | 190 | 0.0 | 14.5 | 0.00 | 0.00 | 0.00 | 31 | 1007.8 |
| 20260505021054 | 33 | 190 | 6.4 | 14.5 | 0.00 | 0.00 | 0.00 | 31 | 1007.7 |
| 20260505020557 | 33 | 190 | 4.8 | 9.7 | 0.00 | 0.00 | 0.00 | 29 | 1007.6 |
| 20260505020055 | 33 | 190 | 1.6 | 9.7 | 0.00 | 0.00 | 0.00 | 27 | 1007.6 |
| 20260505015554 | 33 | 190 | 3.2 | 9.7 | 0.00 | 0.00 | 0.00 | 27 | 1007.6 |
| 20260505015056 | 33 | 190 | 1.6 | 9.7 | 0.00 | 0.00 | 0.00 | 26 | 1007.3 |
| 20260505014608 | 33 | 0 | 4.8 | 11.3 | 0.00 | 0.00 | 0.00 | 26 | 1007.1 |
| 20260505014604 | 33 | 190 | 1.6 | 11.3 | 0.00 | 0.00 | 0.00 | 26 | 1007.2 |
| 20260505014053 | 34 | 190 | 3.2 | 11.3 | 0.00 | 0.00 | 0.00 | 26 | 1007.2 |
| 20260505013553 | 34 | 190 | 4.8 | 9.7 | 0.00 | 0.00 | 0.00 | 26 | 1007.2 |
| 20260505013107 | 34 | 190 | 1.6 | 12.9 | 0.00 | 0.00 | 0.00 | 26 | 1007.0 |
| 20260505013100 | 34 | 190 | 3.2 | 16.1 | 0.00 | 0.00 | 0.00 | 25 | 1006.8 |
| 20260505012555 | 34 | 190 | 1.6 | 16.1 | 0.00 | 0.00 | 0.00 | 26 | 1006.8 |
| 20260505012053 | 35 | 190 | 3.2 | 12.9 | 0.00 | 0.00 | 0.00 | 25 | 1006.8 |
| 20260505011600 | 35 | 0 | 6.4 | 12.9 | 0.00 | 0.00 | 0.00 | 25 | 1006.6 |
| 20260505011553 | 35 | 190 | 4.8 | 12.9 | 0.00 | 0.00 | 0.00 | 25 | 1006.8 |
| 20260505011052 | 35 | 190 | 0.0 | 8.0 | 0.00 | 0.00 | 0.00 | 25 | 1006.8 |
| 20260505010552 | 35 | 190 | 1.6 | 12.9 | 0.00 | 0.00 | 0.00 | 25 | 1006.8 |
| 20260505010106 | 35 | 190 | 3.2 | 11.3 | 0.00 | 0.00 | 0.00 | 25 | 1006.6 |
| 20260505010052 | 35 | 190 | 4.8 | 12.9 | 0.00 | 0.00 | 0.00 | 25 | 1006.7 |
| 20260505005552 | 35 | 190 | 1.6 | 9.7 | 0.00 | 0.00 | 0.00 | 25 | 1006.7 |
| 20260505005053 | 35 | 190 | 3.2 | 9.7 | 0.00 | 0.00 | 0.00 | 25 | 1006.6 |
| 20260505004600 | 36 | 190 | 3.2 | 12.9 | 0.00 | 0.00 | 0.00 | 24 | 1006.4 |
| 20260505004556 | 35 | 190 | 3.2 | 12.9 | 0.00 | 0.00 | 0.00 | 24 | 1006.5 |
| 20260505004050 | 36 | 190 | 6.4 | 12.9 | 0.00 | 0.00 | 0.00 | 24 | 1006.4 |
| 20260505003550 | 36 | 190 | 3.2 | 14.5 | 0.00 | 0.00 | 0.00 | 24 | 1006.4 |
| 20260505003109 | 36 | 190 | 3.2 | 14.5 | 0.00 | 0.00 | 0.00 | 24 | 1006.4 |
| 20260505003050 | 36 | 190 | 1.6 | 14.5 | 0.00 | 0.00 | 0.00 | 24 | 1006.4 |
| 20260505002550 | 36 | 190 | 4.8 | 14.5 | 0.00 | 0.00 | 0.00 | 24 | 1006.3 |
| 20260505002050 | 36 | 190 | 3.2 | 12.9 | 0.00 | 0.00 | 0.00 | 24 | 1006.3 |
| 20260505001559 | 36 | 190 | 4.8 | 14.5 | 0.00 | 0.00 | 0.00 | 23 | 1006.1 |
| 20260505001554 | 36 | 190 | 4.8 | 14.5 | 0.00 | 0.00 | 0.00 | 23 | 1006.2 |
| 20260505001050 | 36 | 190 | 6.4 | 14.5 | 0.00 | 0.00 | 0.00 | 23 | 1006.2 |
| 20260505000549 | 36 | 190 | 3.2 | 14.5 | 0.00 | 0.00 | 0.00 | 24 | 1006.2 |
| 20260505000106 | 36 | 190 | 6.4 | 16.1 | 0.00 | 0.00 | 0.00 | 23 | 1006.2 |
| 20260505000059 | 36 | 190 | 6.4 | 16.1 | 0.00 | 0.00 | 0.00 | 23 | 1006.0 |
| 20260504235549 | 36 | 190 | 4.8 | 16.1 | 0.00 | 0.00 | 0.00 | 23 | 1006.1 |
| 20260504235049 | 37 | 190 | 1.6 | 14.5 | 0.00 | 0.00 | 0.00 | 23 | 1006.1 |
| 20260504234558 | 37 | 190 | 4.8 | 17.7 | 0.00 | 0.00 | 0.00 | 23 | 1006.0 |
| 20260504234548 | 37 | 190 | 3.2 | 17.7 | 0.00 | 0.00 | 0.00 | 23 | 1006.2 |
| 20260504234048 | 37 | 190 | 8.0 | 17.7 | 0.00 | 0.00 | 0.00 | 23 | 1006.1 |
| 20260504233547 | 37 | 190 | 3.2 | 11.3 | 0.00 | 0.00 | 0.00 | 23 | 1006.1 |
| 20260504233059 | 37 | 0 | 1.6 | 12.9 | 0.00 | 0.00 | 0.00 | 23 | 1006.0 |
| 20260504233049 | 37 | 190 | 1.6 | 12.9 | 0.00 | 0.00 | 0.00 | 23 | 1006.2 |
| 20260504232548 | 37 | 190 | 4.8 | 12.9 | 0.00 | 0.00 | 0.00 | 23 | 1006.1 |
| 20260504232047 | 37 | 190 | 1.6 | 11.3 | 0.00 | 0.00 | 0.00 | 23 | 1006.1 |
| 20260504231559 | 37 | 190 | 3.2 | 17.7 | 0.00 | 0.00 | 0.00 | 22 | 1006.0 |
| 20260504231547 | 37 | 190 | 3.2 | 11.3 | 0.00 | 0.00 | 0.00 | 23 | 1006.1 |
| 20260504231047 | 37 | 190 | 3.2 | 17.7 | 0.00 | 0.00 | 0.00 | 23 | 1006.0 |
| 20260504230548 | 37 | 190 | 6.4 | 17.7 | 0.00 | 0.00 | 0.00 | 23 | 1006.1 |
| 20260504230059 | 37 | 190 | 1.6 | 11.3 | 0.00 | 0.00 | 0.00 | 23 | 1005.9 |
| 20260504225546 | 37 | 190 | 0.0 | 12.9 | 0.00 | 0.00 | 0.00 | 23 | 1005.9 |
| 20260504225047 | 37 | 190 | 1.6 | 14.5 | 0.00 | 0.00 | 0.00 | 23 | 1005.9 |
| 20260504224600 | 37 | 190 | 4.8 | 17.7 | 0.00 | 0.00 | 0.00 | 23 | 1005.9 |
| 20260504224546 | 37 | 190 | 4.8 | 17.7 | 0.00 | 0.00 | 0.00 | 23 | 1005.9 |
| 20260504224045 | 37 | 190 | 8.0 | 17.7 | 0.00 | 0.00 | 0.00 | 23 | 1006.0 |
| 20260504223545 | 37 | 190 | 0.0 | 12.9 | 0.00 | 0.00 | 0.00 | 23 | 1005.9 |
| 20260504223101 | 37 | 0 | 6.4 | 12.9 | 0.00 | 0.00 | 0.00 | 23 | 1006.1 |
| 20260504223045 | 37 | 190 | 4.8 | 12.9 | 0.00 | 0.00 | 0.00 | 23 | 1006.1 |
| 20260504222544 | 37 | 190 | 4.8 | 11.3 | 0.00 | 0.00 | 0.00 | 23 | 1006.2 |
| 20260504222043 | 37 | 190 | 4.8 | 16.1 | 0.00 | 0.00 | 0.00 | 23 | 1006.2 |
| 20260504221558 | 37 | 190 | 3.2 | 16.1 | 0.00 | 0.00 | 0.00 | 23 | 1006.3 |
| 20260504221554 | 37 | 190 | 1.6 | 16.1 | 0.00 | 0.00 | 0.00 | 23 | 1006.3 |
| 20260504221042 | 37 | 190 | 0.0 | 8.0 | 0.00 | 0.00 | 0.00 | 24 | 1006.3 |
| 20260504220541 | 37 | 190 | 0.0 | 14.5 | 0.00 | 0.00 | 0.00 | 24 | 1006.3 |
| 20260504220107 | 37 | 190 | 4.8 | 14.5 | 0.00 | 0.00 | 0.00 | 24 | 1006.4 |
| 20260504220041 | 37 | 190 | 1.6 | 14.5 | 0.00 | 0.00 | 0.00 | 24 | 1006.4 |
| 20260504215543 | 37 | 190 | 0.0 | 11.3 | 0.00 | 0.00 | 0.00 | 24 | 1006.3 |
| 20260504215042 | 37 | 190 | 1.6 | 8.0 | 0.00 | 0.00 | 0.00 | 25 | 1006.5 |
| 20260504214605 | 37 | 190 | 1.6 | 16.1 | 0.00 | 0.00 | 0.00 | 24 | 1006.6 |
| 20260504214537 | 37 | 190 | 1.6 | 16.1 | 0.00 | 0.00 | 0.00 | 25 | 1006.6 |
| 20260504214037 | 37 | 190 | 6.4 | 16.1 | 0.00 | 0.00 | 0.00 | 24 | 1006.6 |
| 20260504213536 | 37 | 190 | 1.6 | 8.0 | 0.00 | 0.00 | 0.00 | 25 | 1006.6 |
| 20260504213100 | 37 | 0 | 0.0 | 17.7 | 0.00 | 0.00 | 0.00 | 24 | 1006.7 |
| 20260504213041 | 37 | 190 | 0.0 | 11.3 | 0.00 | 0.00 | 0.00 | 25 | 1006.8 |
| 20260504212534 | 37 | 190 | 0.0 | 20.9 | 0.00 | 0.00 | 0.00 | 25 | 1007.0 |
| 20260504212035 | 37 | 190 | 6.4 | 20.9 | 0.00 | 0.00 | 0.00 | 25 | 1007.1 |
| 20260504211556 | 37 | 190 | 3.2 | 19.3 | 0.00 | 0.00 | 0.00 | 25 | 1007.1 |
| 20260504211533 | 37 | 190 | 3.2 | 19.3 | 0.00 | 0.00 | 0.00 | 25 | 1007.1 |
| 20260504211032 | 37 | 190 | 6.4 | 19.3 | 0.00 | 0.00 | 0.00 | 25 | 1007.3 |
| 20260504210532 | 37 | 190 | 3.2 | 12.9 | 0.00 | 0.00 | 0.00 | 26 | 1007.2 |
| 20260504210106 | 36 | 190 | 4.8 | 12.9 | 0.00 | 0.00 | 0.00 | 25 | 1007.4 |
| 20260504210031 | 36 | 190 | 4.8 | 11.3 | 0.00 | 0.00 | 0.00 | 26 | 1007.3 |
| 20260504205530 | 36 | 190 | 3.2 | 12.9 | 0.00 | 0.00 | 0.00 | 26 | 1007.5 |
| 20260504205029 | 37 | 190 | 1.6 | 11.3 | 0.00 | 0.00 | 0.00 | 27 | 1007.7 |
| 20260504204625 | 36 | 190 | 4.8 | 11.3 | 0.00 | 0.00 | 0.00 | 26 | 1007.7 |
| 20260504204528 | 36 | 190 | 1.6 | 11.3 | 0.00 | 0.00 | 0.00 | 27 | 1007.7 |
| 20260504204026 | 36 | 190 | 1.6 | 12.9 | 0.00 | 0.00 | 0.00 | 27 | 1007.7 |
| 20260504203525 | 36 | 190 | 4.8 | 14.5 | 0.00 | 0.00 | 0.00 | 27 | 1007.8 |
| 20260504203134 | 36 | 190 | 3.2 | 11.3 | 0.00 | 0.00 | 0.00 | 27 | 1008.0 |
| 20260504203028 | 36 | 190 | 1.6 | 11.3 | 0.00 | 0.00 | 0.00 | 28 | 1008.0 |
| 20260504202523 | 36 | 190 | 1.6 | 12.9 | 0.00 | 0.00 | 0.00 | 28 | 1008.1 |
| 20260504202022 | 36 | 190 | 3.2 | 12.9 | 0.00 | 0.00 | 0.00 | 28 | 1008.3 |
| 20260504201559 | 36 | 190 | 3.2 | 16.1 | 0.00 | 0.00 | 0.00 | 28 | 1008.4 |
| 20260504201520 | 36 | 190 | 3.2 | 16.1 | 0.00 | 0.00 | 0.00 | 29 | 1008.3 |
| 20260504201019 | 36 | 190 | 8.0 | 16.1 | 0.00 | 0.00 | 0.00 | 28 | 1008.5 |
| 20260504200518 | 35 | 190 | 0.0 | 12.9 | 0.00 | 0.00 | 0.00 | 29 | 1008.6 |
| 20260504200057 | 36 | 190 | 6.4 | 16.1 | 0.00 | 0.00 | 0.00 | 28 | 1008.9 |
| 20260504200019 | 36 | 190 | 6.4 | 16.1 | 0.00 | 0.00 | 0.00 | 29 | 1008.7 |
| 20260504195516 | 36 | 190 | 9.7 | 16.1 | 0.00 | 0.00 | 0.00 | 28 | 1008.7 |
| 20260504195015 | 35 | 190 | 4.8 | 14.5 | 0.00 | 0.00 | 0.00 | 29 | 1008.7 |
| 20260504194559 | 35 | 190 | 3.2 | 14.5 | 0.00 | 0.00 | 0.00 | 29 | 1009.0 |
| 20260504194514 | 35 | 190 | 1.6 | 14.5 | 0.00 | 0.00 | 0.00 | 29 | 1008.9 |
| 20260504194013 | 35 | 190 | 3.2 | 14.5 | 0.00 | 0.00 | 0.00 | 29 | 1009.0 |
| 20260504193512 | 35 | 190 | 3.2 | 14.5 | 0.00 | 0.00 | 0.00 | 29 | 1009.1 |
| 20260504193056 | 35 | 190 | 6.4 | 16.1 | 0.00 | 0.00 | 0.00 | 30 | 1009.4 |
| 20260504193012 | 35 | 190 | 6.4 | 16.1 | 0.00 | 0.00 | 0.00 | 30 | 1009.2 |
| 20260504192508 | 35 | 190 | 4.8 | 16.1 | 0.00 | 0.00 | 0.00 | 31 | 1009.4 |
| 20260504192007 | 35 | 190 | 1.6 | 16.1 | 0.00 | 0.00 | 0.00 | 31 | 1009.4 |
| 20260504191604 | 35 | 190 | 6.4 | 20.9 | 0.00 | 0.00 | 0.00 | 30 | 1009.6 |
| 20260504191507 | 35 | 190 | 6.4 | 20.9 | 0.00 | 0.00 | 0.00 | 31 | 1009.7 |
| 20260504191005 | 35 | 190 | 6.4 | 20.9 | 0.00 | 0.00 | 0.00 | 31 | 1009.8 |
| 20260504190506 | 35 | 190 | 6.4 | 17.7 | 0.00 | 0.00 | 0.00 | 32 | 1009.9 |
| 20260504190058 | 34 | 190 | 6.4 | 14.5 | 0.00 | 0.00 | 0.00 | 31 | 1009.9 |
| 20260504190004 | 34 | 190 | 6.4 | 14.5 | 0.00 | 0.00 | 0.00 | 32 | 1010.1 |
| 20260504185502 | 34 | 190 | 3.2 | 14.5 | 0.00 | 0.00 | 0.00 | 33 | 1010.2 |
| 20260504185101 | 34 | 190 | 1.6 | 19.3 | 0.00 | 0.00 | 0.00 | 33 | 1010.3 |
| 20260504184603 | 34 | 190 | 8.0 | 19.3 | 0.00 | 0.00 | 0.00 | 33 | 1010.5 |
| 20260504184058 | 34 | 190 | 3.2 | 12.9 | 0.00 | 0.00 | 0.00 | 33 | 1010.5 |
| 20260504183557 | 34 | 190 | 3.2 | 9.7 | 0.00 | 0.00 | 0.00 | 34 | 1010.7 |
| 20260504183105 | 33 | 0 | 3.2 | 11.3 | 0.00 | 0.00 | 0.00 | 34 | 1010.8 |
| 20260504182555 | 33 | 190 | 0.0 | 11.3 | 0.00 | 0.00 | 0.00 | 34 | 1011.0 |
| 20260504182057 | 33 | 190 | 4.8 | 11.3 | 0.00 | 0.00 | 0.00 | 34 | 1011.1 |
| 20260504181557 | 34 | 190 | 1.6 | 14.5 | 0.00 | 0.00 | 0.00 | 34 | 1011.0 |
| 20260504181052 | 33 | 190 | 1.6 | 14.5 | 0.00 | 0.00 | 0.00 | 35 | 1011.3 |
| 20260504180551 | 33 | 190 | 1.6 | 14.5 | 0.00 | 0.00 | 0.00 | 35 | 1011.4 |
| 20260504180119 | 33 | 190 | 4.8 | 14.5 | 0.00 | 0.00 | 0.00 | 36 | 1011.2 |
| 20260504180050 | 33 | 190 | 4.8 | 14.5 | 0.00 | 0.00 | 0.00 | 36 | 1011.5 |
| 20260504175552 | 33 | 190 | 6.4 | 12.9 | 0.00 | 0.00 | 0.00 | 36 | 1011.6 |
| 20260504175049 | 33 | 190 | 0.0 | 8.0 | 0.00 | 0.00 | 0.00 | 35 | 1011.8 |
| 20260504174557 | 32 | 0 | 0.0 | 16.1 | 0.00 | 0.00 | 0.00 | 35 | 1011.6 |
| 20260504174546 | 32 | 190 | 0.0 | 11.3 | 0.00 | 0.00 | 0.00 | 36 | 1011.9 |
| 20260504174045 | 32 | 190 | 1.6 | 16.1 | 0.00 | 0.00 | 0.00 | 36 | 1012.0 |
| 20260504173544 | 32 | 190 | 4.8 | 14.5 | 0.00 | 0.00 | 0.00 | 36 | 1012.1 |
| 20260504173110 | 33 | 190 | 3.2 | 8.0 | 0.00 | 0.00 | 0.00 | 36 | 1011.8 |
| 20260504173044 | 32 | 190 | 3.2 | 9.7 | 0.00 | 0.00 | 0.00 | 36 | 1012.1 |
| 20260504172541 | 32 | 190 | 0.0 | 8.0 | 0.00 | 0.00 | 0.00 | 37 | 1012.2 |
| 20260504172041 | 32 | 190 | 0.0 | 11.3 | 0.00 | 0.00 | 0.00 | 37 | 1012.3 |
| 20260504171612 | 32 | 190 | 4.8 | 16.1 | 0.00 | 0.00 | 0.00 | 36 | 1012.0 |
| 20260504171540 | 32 | 190 | 1.6 | 11.3 | 0.00 | 0.00 | 0.00 | 37 | 1012.3 |
| 20260504171040 | 32 | 190 | 0.0 | 16.1 | 0.00 | 0.00 | 0.00 | 37 | 1012.5 |
| 20260504170541 | 32 | 190 | 4.8 | 16.1 | 0.00 | 0.00 | 0.00 | 37 | 1012.6 |
| 20260504160110 | 30 | 0 | 0.0 | 8.0 | 0.00 | 0.00 | 0.00 | 42 | 1013.3 |
| 20260504151023 | 28 | 190 | 0.0 | 0.0 | 0.00 | 0.00 | 0.00 | 49 | 1014.0 |
| 20260504150521 | 28 | 190 | 0.0 | 0.0 | 0.00 | 0.00 | 0.00 | 49 | 1014.0 |
| 20260504150104 | 28 | 0 | 0.0 | 0.0 | 0.00 | 0.00 | 0.00 | 48 | 1013.6 |
| 20260504141013 | 26 | 190 | 0.0 | 3.2 | 0.00 | 0.00 | 0.00 | 56 | 1014.2 |
| 20260504140513 | 26 | 190 | 0.0 | 3.2 | 0.00 | 0.00 | 0.00 | 58 | 1014.2 |
| 20260504130507 | 24 | 190 | 0.0 | 0.0 | 0.00 | 0.00 | 0.00 | 60 | 1013.6 |
| 20260504130105 | 24 | 0 | 0.0 | 0.0 | 0.00 | 0.00 | 0.00 | 61 | 1013.0 |
| 20260504110555 | 24 | 190 | 0.0 | 0.0 | 0.00 | 0.00 | 0.00 | 57 | 1012.4 |
| 20260504100547 | 25 | 190 | 0.0 | 0.0 | 0.00 | 0.00 | 0.00 | 52 | 1012.3 |
| 20260504081559 | 26 | 0 | 0.0 | 0.0 | 0.00 | 0.00 | 0.00 | 45 | 1012.2 |
| 20260504081533 | 26 | 190 | 0.0 | 0.0 | 0.00 | 0.00 | 0.00 | 46 | 1012.8 |
| 20260504081035 | 26 | 190 | 0.0 | 0.0 | 0.00 | 0.00 | 0.00 | 46 | 1012.9 |
| 20260504080532 | 26 | 190 | 0.0 | 0.0 | 0.00 | 0.00 | 0.00 | 46 | 1012.9 |
| 20260504060105 | 28 | 0 | 0.0 | 0.0 | 0.00 | 0.00 | 0.00 | 39 | 1012.8 |